Time,TemperatureF,DewpointF,PressureIn,WindDirection,WindDirectionDegrees,WindSpeedMPH,WindSpeedGustMPH,Humidity,HourlyPrecipIn,Conditions,Clouds,dailyrainin,SoftwareType,DateUTC
2013-01-13 00:16:00,45.5,39.0,29.77,North,359,3.0,-999.0,79,-99.99,,,0.00,weatherlink.com 1.10,2013-01-13 05:16:00,
2013-01-13 00:32:00,45.2,39.0,29.76,North,6,3.0,-999.0,80,-99.99,,,0.01,weatherlink.com 1.10,2013-01-13 05:32:00,
2013-01-13 00:46:00,44.3,39.0,29.76,NNE,25,0.0,-999.0,81,-99.99,,,0.04,weatherlink.com 1.10,2013-01-13 05:46:00,
2013-01-13 01:01:00,42.9,38.0,29.73,NNE,16,4.0,-999.0,83,-99.99,,,0.07,weatherlink.com 1.10,2013-01-13 06:01:00,
2013-01-13 01:16:00,42.5,38.0,29.73,North,352,5.0,-999.0,85,-99.99,,,0.09,weatherlink.com 1.10,2013-01-13 06:16:00,
2013-01-13 01:31:00,42.0,38.0,29.73,NE,39,4.0,-999.0,87,-99.99,,,0.11,weatherlink.com 1.10,2013-01-13 06:31:00,
2013-01-13 01:46:00,41.8,39.0,29.70,NNE,18,0.0,-999.0,88,-99.99,,,0.12,weatherlink.com 1.10,2013-01-13 06:46:00,
2013-01-13 02:16:00,41.0,38.0,29.70,NNE,23,5.0,-999.0,88,-99.99,,,0.13,weatherlink.com 1.10,2013-01-13 07:16:00,
2013-01-13 02:31:00,40.3,37.0,29.70,North,359,6.0,-999.0,88,-99.99,,,0.14,weatherlink.com 1.10,2013-01-13 07:31:00,
2013-01-13 02:46:00,39.6,36.0,29.72,NNW,346,6.0,-999.0,88,-99.99,,,0.18,weatherlink.com 1.10,2013-01-13 07:46:00,
2013-01-13 03:01:00,39.0,36.0,29.72,NNE,25,4.0,-999.0,89,-99.99,,,0.24,weatherlink.com 1.10,2013-01-13 08:01:00,
2013-01-13 03:16:00,38.7,36.0,29.71,North,4,0.0,-999.0,90,-99.99,,,0.27,weatherlink.com 1.10,2013-01-13 08:16:00,
2013-01-13 03:31:00,38.6,36.0,29.70,NE,36,3.0,-999.0,90,-99.99,,,0.29,weatherlink.com 1.10,2013-01-13 08:31:00,
2013-01-13 03:46:00,38.6,36.0,29.69,North,1,4.0,-999.0,91,-99.99,,,0.30,weatherlink.com 1.10,2013-01-13 08:46:00,
2013-01-13 04:01:00,38.6,36.0,29.70,NNE,18,0.0,-999.0,91,-99.99,,,0.32,weatherlink.com 1.10,2013-01-13 09:01:00,
2013-01-13 04:16:00,38.6,37.0,29.70,NNE,15,4.0,-999.0,92,-99.99,,,0.34,weatherlink.com 1.10,2013-01-13 09:16:00,
2013-01-13 04:31:00,38.5,36.0,29.70,North,11,5.0,-999.0,92,-99.99,,,0.36,weatherlink.com 1.10,2013-01-13 09:31:00,
2013-01-13 04:46:00,38.0,36.0,29.70,NE,49,3.0,-999.0,93,-99.99,,,0.40,weatherlink.com 1.10,2013-01-13 09:46:00,
2013-01-13 05:01:00,37.9,36.0,29.68,NE,49,5.0,-999.0,93,-99.99,,,0.43,weatherlink.com 1.10,2013-01-13 10:01:00,
2013-01-13 05:16:00,37.7,36.0,29.67,North,11,5.0,-999.0,93,-99.99,,,0.45,weatherlink.com 1.10,2013-01-13 10:16:00,
2013-01-13 05:31:00,37.7,36.0,29.66,NNE,27,4.0,-999.0,93,-99.99,,,0.46,weatherlink.com 1.10,2013-01-13 10:31:00,
2013-01-13 05:46:00,37.6,36.0,29.66,NNW,338,1.0,-999.0,93,-99.99,,,0.46,weatherlink.com 1.10,2013-01-13 10:46:00,
2013-01-13 06:01:00,37.2,35.0,29.69,NW,315,2.0,-999.0,93,-99.99,,,0.46,weatherlink.com 1.10,2013-01-13 11:01:00,
2013-01-13 06:16:00,37.0,35.0,29.71,NW,316,0.0,-999.0,93,-99.99,,,0.46,weatherlink.com 1.10,2013-01-13 11:16:00,
2013-01-13 06:31:00,37.0,35.0,29.70,NW,323,4.0,-999.0,93,-99.99,,,0.46,weatherlink.com 1.10,2013-01-13 11:31:00,
2013-01-13 06:46:00,36.9,35.0,29.70,NNE,21,0.0,-999.0,93,-99.99,,,0.46,weatherlink.com 1.10,2013-01-13 11:46:00,
2013-01-13 07:01:00,36.7,35.0,29.70,North,0,2.0,-999.0,94,-99.99,,,0.46,weatherlink.com 1.10,2013-01-13 12:01:00,
2013-01-13 07:16:00,36.7,35.0,29.70,NNE,13,0.0,-999.0,93,-99.99,,,0.46,weatherlink.com 1.10,2013-01-13 12:16:00,
2013-01-13 07:31:00,36.7,35.0,29.73,NW,304,0.0,-999.0,94,-99.99,,,0.46,weatherlink.com 1.10,2013-01-13 12:31:00,
2013-01-13 07:46:00,36.7,35.0,29.73,NE,34,2.0,-999.0,94,-99.99,,,0.46,weatherlink.com 1.10,2013-01-13 12:46:00,
2013-01-13 08:01:00,36.7,35.0,29.72,NNE,17,0.0,-999.0,94,-99.99,,,0.46,weatherlink.com 1.10,2013-01-13 13:01:00,
2013-01-13 08:16:00,36.7,35.0,29.74,NNE,17,0.0,-999.0,94,-99.99,,,0.46,weatherlink.com 1.10,2013-01-13 13:16:00,
2013-01-13 08:31:00,36.7,35.0,29.75,NNE,17,0.0,-999.0,94,-99.99,,,0.46,weatherlink.com 1.10,2013-01-13 13:31:00,
2013-01-13 08:46:00,36.9,35.0,29.76,NNE,17,0.0,-999.0,94,-99.99,,,0.46,weatherlink.com 1.10,2013-01-13 13:46:00,
2013-01-13 09:01:00,37.0,36.0,29.75,NNE,17,0.0,-999.0,94,-99.99,,,0.46,weatherlink.com 1.10,2013-01-13 14:01:00,
2013-01-13 09:16:00,37.2,36.0,29.75,NNE,17,0.0,-999.0,94,-99.99,,,0.46,weatherlink.com 1.10,2013-01-13 14:16:00,
2013-01-13 09:31:00,37.3,36.0,29.75,NNE,17,0.0,-999.0,94,-99.99,,,0.46,weatherlink.com 1.10,2013-01-13 14:31:00,
2013-01-13 09:46:00,37.5,36.0,29.75,NNE,17,0.0,-999.0,94,-99.99,,,0.46,weatherlink.com 1.10,2013-01-13 14:46:00,
2013-01-13 10:01:00,37.5,36.0,29.76,NNE,17,0.0,-999.0,94,-99.99,,,0.46,weatherlink.com 1.10,2013-01-13 15:01:00,
2013-01-13 10:16:00,37.6,36.0,29.76,NNE,17,0.0,-999.0,94,-99.99,,,0.46,weatherlink.com 1.10,2013-01-13 15:16:00,
2013-01-13 10:31:00,37.7,36.0,29.77,NNE,17,0.0,-999.0,94,-99.99,,,0.46,weatherlink.com 1.10,2013-01-13 15:31:00,
2013-01-13 10:46:00,37.7,36.0,29.79,NNE,16,2.0,-999.0,94,-99.99,,,0.46,weatherlink.com 1.10,2013-01-13 15:46:00,
2013-01-13 11:01:00,37.9,36.0,29.80,North,7,0.0,-999.0,94,-99.99,,,0.46,weatherlink.com 1.10,2013-01-13 16:01:00,
2013-01-13 11:16:00,38.0,37.0,29.80,North,2,3.0,-999.0,94,-99.99,,,0.46,weatherlink.com 1.10,2013-01-13 16:16:00,
2013-01-13 11:31:00,38.2,37.0,29.79,North,2,0.0,-999.0,95,-99.99,,,0.46,weatherlink.com 1.10,2013-01-13 16:31:00,
2013-01-13 11:46:00,38.3,37.0,29.79,NNW,328,0.0,-999.0,95,-99.99,,,0.46,weatherlink.com 1.10,2013-01-13 16:46:00,
2013-01-13 12:01:00,38.5,37.0,29.78,NW,316,0.0,-999.0,95,-99.99,,,0.46,weatherlink.com 1.10,2013-01-13 17:01:00,
2013-01-13 12:16:00,38.3,37.0,29.78,NW,308,4.0,-999.0,95,-99.99,,,0.46,weatherlink.com 1.10,2013-01-13 17:16:00,
2013-01-13 12:31:00,38.3,37.0,29.79,NW,309,0.0,-999.0,95,-99.99,,,0.46,weatherlink.com 1.10,2013-01-13 17:31:00,
2013-01-13 12:46:00,38.0,37.0,29.76,West,271,5.0,-999.0,95,-99.99,,,0.46,weatherlink.com 1.10,2013-01-13 17:46:00,
2013-01-13 13:01:00,38.0,37.0,29.77,West,279,0.0,-999.0,95,-99.99,,,0.46,weatherlink.com 1.10,2013-01-13 18:01:00,
2013-01-13 13:16:00,38.0,37.0,29.79,WNW,301,0.0,-999.0,95,-99.99,,,0.46,weatherlink.com 1.10,2013-01-13 18:16:00,
2013-01-13 13:31:00,37.9,37.0,29.80,West,281,4.0,-999.0,95,-99.99,,,0.46,weatherlink.com 1.10,2013-01-13 18:31:00,
2013-01-13 13:46:00,37.9,37.0,29.79,NW,305,2.0,-999.0,95,-99.99,,,0.46,weatherlink.com 1.10,2013-01-13 18:46:00,
2013-01-13 14:01:00,37.7,36.0,29.79,WNW,303,0.0,-999.0,95,-99.99,,,0.46,weatherlink.com 1.10,2013-01-13 19:01:00,
2013-01-13 14:16:00,37.5,36.0,29.78,NW,304,3.0,-999.0,95,-99.99,,,0.46,weatherlink.com 1.10,2013-01-13 19:16:00,
2013-01-13 14:31:00,37.3,36.0,29.76,NW,311,0.0,-999.0,95,-99.99,,,0.46,weatherlink.com 1.10,2013-01-13 19:31:00,
2013-01-13 14:46:00,37.3,36.0,29.75,North,4,0.0,-999.0,95,-99.99,,,0.46,weatherlink.com 1.10,2013-01-13 19:46:00,
2013-01-13 15:01:00,37.2,36.0,29.75,North,357,0.0,-999.0,95,-99.99,,,0.46,weatherlink.com 1.10,2013-01-13 20:01:00,
2013-01-13 15:16:00,36.9,35.0,29.79,NW,306,2.0,-999.0,94,-99.99,,,0.46,weatherlink.com 1.10,2013-01-13 20:16:00,
2013-01-13 15:31:00,37.0,36.0,29.80,NW,307,2.0,-999.0,95,-99.99,,,0.46,weatherlink.com 1.10,2013-01-13 20:31:00,
2013-01-13 15:46:00,36.7,35.0,29.82,NW,306,0.0,-999.0,95,-99.99,,,0.46,weatherlink.com 1.10,2013-01-13 20:46:00,
2013-01-13 16:01:00,36.5,35.0,29.83,NNW,341,0.0,-999.0,95,-99.99,,,0.46,weatherlink.com 1.10,2013-01-13 21:01:00,
2013-01-13 16:16:00,36.3,35.0,29.84,NNW,327,0.0,-999.0,95,-99.99,,,0.46,weatherlink.com 1.10,2013-01-13 21:16:00,
2013-01-13 16:31:00,36.0,35.0,29.84,NW,305,0.0,-999.0,94,-99.99,,,0.46,weatherlink.com 1.10,2013-01-13 21:31:00,
2013-01-13 16:46:00,35.9,34.0,29.84,NW,307,0.0,-999.0,94,-99.99,,,0.47,weatherlink.com 1.10,2013-01-13 21:46:00,
2013-01-13 17:01:00,35.7,34.0,29.85,WNW,302,0.0,-999.0,94,-99.99,,,0.47,weatherlink.com 1.10,2013-01-13 22:01:00,
2013-01-13 17:16:00,35.6,34.0,29.83,WNW,302,2.0,-999.0,94,-99.99,,,0.47,weatherlink.com 1.10,2013-01-13 22:16:00,
2013-01-13 17:31:00,35.4,34.0,29.84,WNW,302,0.0,-999.0,94,-99.99,,,0.51,weatherlink.com 1.10,2013-01-13 22:31:00,
2013-01-13 17:46:00,35.4,34.0,29.83,WNW,302,0.0,-999.0,94,-99.99,,,0.54,weatherlink.com 1.10,2013-01-13 22:46:00,
2013-01-13 18:01:00,35.3,34.0,29.83,WNW,302,0.0,-999.0,94,-99.99,,,0.55,weatherlink.com 1.10,2013-01-13 23:01:00,
2013-01-13 18:16:00,35.3,34.0,29.81,WNW,301,0.0,-999.0,94,-99.99,,,0.57,weatherlink.com 1.10,2013-01-13 23:16:00,
2013-01-13 18:31:00,35.3,34.0,29.83,WNW,301,0.0,-999.0,94,-99.99,,,0.57,weatherlink.com 1.10,2013-01-13 23:31:00,
2013-01-13 18:46:00,35.1,34.0,29.82,WNW,301,0.0,-999.0,95,-99.99,,,0.57,weatherlink.com 1.10,2013-01-13 23:46:00,
2013-01-13 19:01:00,35.0,34.0,29.84,West,271,0.0,-999.0,95,-99.99,,,0.58,weatherlink.com 1.10,2013-01-14 00:01:00,
2013-01-13 19:16:00,35.0,34.0,29.83,WSW,245,0.0,-999.0,95,-99.99,,,0.58,weatherlink.com 1.10,2013-01-14 00:16:00,
2013-01-13 19:31:00,34.7,34.0,29.84,WSW,246,1.0,-999.0,95,-99.99,,,0.59,weatherlink.com 1.10,2013-01-14 00:31:00,
2013-01-13 19:46:00,34.2,33.0,29.85,West,259,2.0,-999.0,95,-99.99,,,0.60,weatherlink.com 1.10,2013-01-14 00:46:00,
2013-01-13 20:01:00,33.8,33.0,29.85,West,270,3.0,-999.0,95,-99.99,,,0.60,weatherlink.com 1.10,2013-01-14 01:01:00,
2013-01-13 20:16:00,33.6,32.0,29.86,WNW,282,4.0,-999.0,95,-99.99,,,0.60,weatherlink.com 1.10,2013-01-14 01:16:00,
2013-01-13 20:46:00,33.2,32.0,29.86,WNW,288,6.0,-999.0,95,-99.99,,,0.60,weatherlink.com 1.10,2013-01-14 01:46:00,
2013-01-13 21:01:00,32.9,32.0,29.88,WNW,293,4.0,-999.0,95,-99.99,,,0.60,weatherlink.com 1.10,2013-01-14 02:01:00,
2013-01-13 21:16:00,32.8,32.0,29.88,WNW,301,4.0,-999.0,95,-99.99,,,0.60,weatherlink.com 1.10,2013-01-14 02:16:00,
2013-01-13 21:31:00,32.3,31.0,29.89,NW,304,7.0,-999.0,94,-99.99,,,0.60,weatherlink.com 1.10,2013-01-14 02:31:00,
2013-01-13 22:01:00,31.3,30.0,29.90,WNW,291,3.0,-999.0,94,-99.99,,,0.60,weatherlink.com 1.10,2013-01-14 03:01:00,
2013-01-13 22:16:00,31.0,30.0,29.90,NW,306,6.0,-999.0,94,-99.99,,,0.60,weatherlink.com 1.10,2013-01-14 03:16:00,
2013-01-13 22:33:00,30.8,29.0,29.90,NW,311,6.0,-999.0,93,-99.99,,,0.60,weatherlink.com 1.10,2013-01-14 03:33:00,
2013-01-13 22:46:00,30.7,29.0,29.90,WNW,293,4.0,-999.0,93,-99.99,,,0.60,weatherlink.com 1.10,2013-01-14 03:46:00,
2013-01-13 23:01:00,29.7,28.0,29.91,West,275,6.0,-999.0,92,-99.99,,,0.60,weatherlink.com 1.10,2013-01-14 04:01:00,
2013-01-13 23:16:00,29.1,27.0,29.93,NW,305,5.0,-999.0,91,-99.99,,,0.60,weatherlink.com 1.10,2013-01-14 04:16:00,
2013-01-13 23:31:00,28.8,27.0,29.93,West,272,4.0,-999.0,91,-99.99,,,0.60,weatherlink.com 1.10,2013-01-14 04:31:00,
2013-01-13 23:46:00,28.5,26.0,29.94,NNW,328,6.0,-999.0,90,-99.99,,,0.60,weatherlink.com 1.10,2013-01-14 04:46:00,